📊 Raw Sensor Data
Showing records 49651 to 49675 of 85,123 total
| ID | Distance (ft) | Battery V | Battery A | Int Temp (°F) | Int Humid (%) | Ext Temp (°F) | Solar V | RSSI | SNR | Time Stamp |
|---|---|---|---|---|---|---|---|---|---|---|
| 35485 | 15.2 | 3.99 | -5 | 42 | 40 | 44 | 0.00 | -79 | 8 | 03/20/2025 02:45 AM |
| 35484 | -- | 3.99 | -5 | 43 | 40 | 45 | 0.00 | -79 | 8 | 03/20/2025 02:30 AM |
| 35483 | -- | 3.99 | -5 | 44 | 40 | 45 | 0.00 | -79 | 7 | 03/20/2025 02:15 AM |
| 35482 | -- | 3.99 | -5 | 44 | 41 | 44 | 0.00 | -80 | 8 | 03/20/2025 02:01 AM |
| 35481 | -- | 4.04 | -5 | 46 | 40 | 45 | 0.00 | -81 | 8 | 03/20/2025 01:45 AM |
| 35480 | -- | 3.99 | -5 | 47 | 40 | 48 | 0.00 | -79 | 7 | 03/20/2025 01:30 AM |
| 35479 | -- | 3.99 | -35 | 47 | 40 | 48 | 0.10 | -81 | 8 | 03/20/2025 01:16 AM |
| 35478 | -- | 3.99 | -5 | 47 | 40 | 48 | 0.00 | -81 | 7 | 03/20/2025 01:00 AM |
| 35477 | -- | 3.99 | -5 | 47 | 40 | 48 | 0.00 | -81 | 8 | 03/20/2025 12:45 AM |
| 35476 | -- | 3.99 | -5 | 48 | 40 | 48 | 0.00 | -81 | 8 | 03/20/2025 12:30 AM |
| 35475 | -- | 4.00 | -5 | 48 | 40 | 49 | 0.00 | -82 | 8 | 03/20/2025 12:15 AM |
| 35474 | -- | 4.00 | -5 | 48 | 40 | 49 | 0.00 | -82 | 7 | 03/20/2025 12:00 AM |
| 35473 | -- | 4.05 | -5 | 48 | 40 | 49 | 0.00 | -79 | 8 | 03/19/2025 11:46 PM |
| 35472 | -- | 4.00 | -5 | 48 | 40 | 49 | 0.00 | -79 | 8 | 03/19/2025 11:30 PM |
| 35471 | -- | 4.05 | -5 | 48 | 40 | 49 | 0.00 | -79 | 8 | 03/19/2025 11:15 PM |
| 35470 | -- | 4.00 | -5 | 48 | 40 | 49 | 0.00 | -79 | 7 | 03/19/2025 11:00 PM |
| 35469 | -- | 4.00 | -5 | 49 | 40 | 49 | 0.00 | -80 | 8 | 03/19/2025 10:45 PM |
| 35468 | -- | 4.00 | -5 | 49 | 40 | 49 | 0.00 | -81 | 7 | 03/19/2025 10:30 PM |
| 35467 | -- | 4.06 | -5 | 49 | 40 | 50 | 0.00 | -82 | 7 | 03/19/2025 10:15 PM |
| 35466 | -- | 4.00 | -5 | 49 | 40 | 50 | 0.00 | -80 | 6 | 03/19/2025 10:00 PM |
| 35465 | -- | 4.06 | -5 | 49 | 41 | 51 | 0.00 | -80 | 8 | 03/19/2025 09:46 PM |
| 35464 | 15.2 | 4.01 | -5 | 49 | 41 | 51 | 0.00 | -79 | 8 | 03/19/2025 09:30 PM |
| 35463 | -- | 4.01 | -5 | 50 | 41 | 50 | 0.00 | -79 | 8 | 03/19/2025 09:15 PM |
| 35462 | -- | 4.06 | -5 | 51 | 41 | 52 | 0.00 | -79 | 8 | 03/19/2025 09:00 PM |
| 35461 | -- | 4.01 | -5 | 52 | 41 | 52 | 0.00 | -79 | 7 | 03/19/2025 08:45 PM |